When you browse on this site, cookies collect data to enhance your experience and personalize the content and advertising you see.
Visit our Privacy Policy to learn more. By continuing to use the site, you agree to this use of cookies and data.
  • In Schweiz
  • Länderverzeichnis
  • Für 7 Tage
  • Wassertemperatur
  • Satellitenkarten
  • Wetterkarte
  • Widgets
  • user-avatar
    Anmelden

    Stündliche Wetter Jewłach

    Heute, 20 Mai, Montag

    Zeit Temperatur Niederschläge Wind Luftdruck Luftfeuchtigkeit
    00:00 +25°C° 1.4 mm 1 m/S 756 mmHg 58%
    01:00 +25°C° 0.1 mm 1 m/S 756 mmHg 61%
    02:00 +24°C° 0.1 mm 1 m/S 756 mmHg 64%
    03:00 +24°C° 0 mm 1 m/S 756 mmHg 65%
    04:00 +24°C° 0.3 mm 1 m/S 756 mmHg 65%
    05:00 +24°C° 0.3 mm 1 m/S 756 mmHg 64%
    06:00 +25°C° 0.3 mm 1 m/S 756 mmHg 63%
    07:00 +26°C° 0.6 mm 1 m/S 757 mmHg 59%
    08:00 +26°C° 0.6 mm 1 m/S 757 mmHg 55%
    09:00 +27°C° 0.6 mm 2 m/S 757 mmHg 51%
    10:00 +28°C° 0.8 mm 2 m/S 757 mmHg 49%
    11:00 +29°C° 0.8 mm 2 m/S 757 mmHg 46%
    12:00 +30°C° 0.8 mm 2 m/S 757 mmHg 44%
    13:00 +31°C° 0 mm 3 m/S 756 mmHg 43%
    14:00 +31°C° 0 mm 3 m/S 756 mmHg 43%
    15:00 +33°C° 0 mm 4 m/S 756 mmHg 42%
    16:00 +32°C° 0 mm 4 m/S 757 mmHg 46%
    17:00 +30°C° 0 mm 4 m/S 757 mmHg 50%
    18:00 +29°C° 0 mm 4 m/S 757 mmHg 53%
    19:00 +27°C° 2.2 mm 4 m/S 758 mmHg 57%
    20:00 +25°C° 2.2 mm 5 m/S 759 mmHg 61%
    21:00 +22°C° 2.2 mm 5 m/S 759 mmHg 64%
    22:00 +22°C° 1.2 mm 4 m/S 759 mmHg 65%
    23:00 +21°C° 1.2 mm 3 m/S 760 mmHg 65%

    Morgen, 21 Mai, Dienstag

    Zeit Temperatur Niederschläge Wind Luftdruck Luftfeuchtigkeit
    00:00 +21°C° 1.2 mm 2 m/S 760 mmHg 66%
    01:00 +21°C° 0 mm 2 m/S 760 mmHg 64%
    02:00 +21°C° 0 mm 2 m/S 761 mmHg 63%
    03:00 +20°C° 0 mm 2 m/S 761 mmHg 61%
    04:00 +20°C° 0 mm 2 m/S 761 mmHg 61%
    05:00 +21°C° 0 mm 2 m/S 761 mmHg 60%
    06:00 +21°C° 0 mm 2 m/S 761 mmHg 59%
    07:00 +23°C° 0 mm 2 m/S 762 mmHg 54%
    08:00 +24°C° 0 mm 3 m/S 762 mmHg 49%
    09:00 +25°C° 0 mm 3 m/S 763 mmHg 44%
    10:00 +26°C° 0 mm 4 m/S 763 mmHg 42%
    11:00 +27°C° 0 mm 4 m/S 763 mmHg 40%
    12:00 +28°C° 0 mm 5 m/S 763 mmHg 38%
    13:00 +28°C° 0 mm 5 m/S 762 mmHg 37%
    14:00 +29°C° 0 mm 5 m/S 762 mmHg 37%
    15:00 +29°C° 0 mm 5 m/S 762 mmHg 36%
    16:00 +28°C° 0 mm 5 m/S 762 mmHg 38%
    17:00 +28°C° 0 mm 5 m/S 762 mmHg 40%
    18:00 +27°C° 0 mm 5 m/S 762 mmHg 43%
    19:00 +26°C° 0 mm 5 m/S 763 mmHg 43%
    20:00 +23°C° 0 mm 5 m/S 763 mmHg 43%
    21:00 +21°C° 0 mm 6 m/S 764 mmHg 44%
    22:00 +20°C° 0 mm 5 m/S 764 mmHg 46%
    23:00 +19°C° 0 mm 5 m/S 764 mmHg 48%

    übermorgen, 22 Mai, Mittwoch

    Zeit Temperatur Niederschläge Wind Luftdruck Luftfeuchtigkeit
    00:00 +19°C° 0 mm 4 m/S 764 mmHg 50%
    01:00 +18°C° 0 mm 3 m/S 764 mmHg 51%
    02:00 +18°C° 0 mm 3 m/S 764 mmHg 52%
    03:00 +17°C° 0 mm 2 m/S 763 mmHg 53%
    04:00 +17°C° 0 mm 2 m/S 763 mmHg 53%
    05:00 +18°C° 0 mm 2 m/S 763 mmHg 53%
    06:00 +19°C° 0 mm 1 m/S 763 mmHg 53%
    07:00 +21°C° 0 mm 1 m/S 763 mmHg 48%
    08:00 +21°C° 0 mm 2 m/S 762 mmHg 44%
    09:00 +23°C° 0 mm 2 m/S 762 mmHg 40%
    10:00 +24°C° 0 mm 2 m/S 761 mmHg 38%
    11:00 +25°C° 0 mm 2 m/S 760 mmHg 36%
    12:00 +26°C° 0 mm 2 m/S 760 mmHg 34%
    13:00 +27°C° 0 mm 2 m/S 759 mmHg 34%
    14:00 +27°C° 0 mm 2 m/S 759 mmHg 34%
    15:00 +27°C° 0 mm 1 m/S 758 mmHg 33%
    16:00 +27°C° 0 mm 1 m/S 758 mmHg 36%
    17:00 +27°C° 0 mm 1 m/S 758 mmHg 38%
    18:00 +27°C° 0 mm 1 m/S 758 mmHg 40%
    19:00 +25°C° 0.6 mm 3 m/S 759 mmHg 50%
    20:00 +22°C° 0.6 mm 5 m/S 759 mmHg 59%
    21:00 +20°C° 0.6 mm 7 m/S 760 mmHg 69%
    22:00 +19°C° 0.4 mm 6 m/S 760 mmHg 72%
    23:00 +19°C° 0.4 mm 5 m/S 760 mmHg 75%

    23 Mai, Donnerstag

    Zeit Temperatur Niederschläge Wind Luftdruck Luftfeuchtigkeit
    00:00 +19°C° 0.4 mm 4 m/S 759 mmHg 78%
    01:00 +18°C° 0 mm 4 m/S 759 mmHg 76%
    02:00 +17°C° 0 mm 5 m/S 759 mmHg 74%
    03:00 +17°C° 0 mm 5 m/S 759 mmHg 71%
    04:00 +17°C° 0 mm 6 m/S 759 mmHg 69%
    05:00 +19°C° 0 mm 6 m/S 759 mmHg 67%
    06:00 +18°C° 0 mm 7 m/S 759 mmHg 64%
    07:00 +21°C° 0 mm 7 m/S 759 mmHg 59%
    08:00 +23°C° 0 mm 7 m/S 759 mmHg 53%
    09:00 +24°C° 0 mm 7 m/S 758 mmHg 47%
    10:00 +27°C° 0 mm 7 m/S 758 mmHg 41%
    11:00 +29°C° 0 mm 6 m/S 758 mmHg 36%
    12:00 +30°C° 0 mm 6 m/S 757 mmHg 30%
    13:00 +32°C° 0 mm 5 m/S 757 mmHg 29%
    14:00 +32°C° 0 mm 5 m/S 757 mmHg 27%
    15:00 +33°C° 0 mm 4 m/S 757 mmHg 25%
    16:00 +32°C° 0 mm 4 m/S 757 mmHg 28%
    17:00 +30°C° 0 mm 3 m/S 757 mmHg 30%
    18:00 +29°C° 0 mm 2 m/S 757 mmHg 33%
    19:00 +27°C° 0.2 mm 3 m/S 758 mmHg 37%
    20:00 +25°C° 0.2 mm 3 m/S 759 mmHg 42%
    21:00 +22°C° 0.2 mm 3 m/S 760 mmHg 47%
    22:00 +21°C° 0 mm 3 m/S 760 mmHg 56%
    23:00 +20°C° 0 mm 2 m/S 760 mmHg 65%

    24 Mai, Freitag

    Zeit Temperatur Niederschläge Wind Luftdruck Luftfeuchtigkeit
    00:00 +19°C° 0 mm 2 m/S 760 mmHg 74%
    01:00 +20°C° 0 mm 1 m/S 760 mmHg 75%
    02:00 +20°C° 0 mm 1 m/S 760 mmHg 75%
    03:00 +19°C° 0 mm 1 m/S 760 mmHg 75%
    04:00 +20°C° 0 mm 1 m/S 760 mmHg 72%
    05:00 +20°C° 0 mm 1 m/S 760 mmHg 69%
    06:00 +20°C° 0 mm 2 m/S 761 mmHg 65%
    07:00 +21°C° 0 mm 2 m/S 760 mmHg 55%
    08:00 +24°C° 0 mm 3 m/S 760 mmHg 45%
    09:00 +26°C° 0 mm 4 m/S 760 mmHg 35%
    10:00 +27°C° 0 mm 3 m/S 760 mmHg 33%
    11:00 +28°C° 0 mm 3 m/S 759 mmHg 30%
    12:00 +29°C° 0 mm 3 m/S 759 mmHg 28%
    13:00 +30°C° 0 mm 2 m/S 758 mmHg 27%
    14:00 +30°C° 0 mm 2 m/S 758 mmHg 26%
    15:00 +31°C° 0 mm 1 m/S 758 mmHg 24%
    16:00 +31°C° 0 mm 1 m/S 758 mmHg 27%
    17:00 +30°C° 0 mm 1 m/S 758 mmHg 30%
    18:00 +30°C° 0 mm 1 m/S 758 mmHg 33%
    19:00 +28°C° 0 mm 1 m/S 759 mmHg 36%
    20:00 +27°C° 0 mm 1 m/S 759 mmHg 40%
    21:00 +25°C° 0 mm 1 m/S 760 mmHg 43%
    22:00 +24°C° 0 mm 2 m/S 760 mmHg 45%
    23:00 +23°C° 0 mm 2 m/S 760 mmHg 47%

    25 Mai, Samstag

    Zeit Temperatur Niederschläge Wind Luftdruck Luftfeuchtigkeit
    00:00 +21°C° 0 mm 3 m/S 760 mmHg 48%
    01:00 +21°C° 0 mm 2 m/S 759 mmHg 49%
    02:00 +21°C° 0 mm 1 m/S 759 mmHg 50%
    03:00 +19°C° 0 mm 0 m/S 759 mmHg 51%
    04:00 +22°C° 0 mm 1 m/S 759 mmHg 53%
    05:00 +22°C° 0 mm 1 m/S 759 mmHg 55%
    06:00 +22°C° 0 mm 1 m/S 759 mmHg 57%
    07:00 +24°C° 0 mm 1 m/S 759 mmHg 50%
    08:00 +26°C° 0 mm 2 m/S 759 mmHg 44%
    09:00 +27°C° 0 mm 2 m/S 758 mmHg 37%
    10:00 +29°C° 0 mm 2 m/S 758 mmHg 34%
    11:00 +31°C° 0 mm 2 m/S 757 mmHg 30%
    12:00 +32°C° 0 mm 2 m/S 757 mmHg 27%
    13:00 +34°C° 0 mm 2 m/S 756 mmHg 26%
    14:00 +35°C° 0 mm 2 m/S 756 mmHg 26%
    15:00 +36°C° 0 mm 2 m/S 755 mmHg 25%
    16:00 +36°C° 0 mm 2 m/S 756 mmHg 28%
    17:00 +35°C° 0 mm 2 m/S 756 mmHg 30%
    18:00 +35°C° 0 mm 2 m/S 756 mmHg 33%
    19:00 +32°C° 0.1 mm 2 m/S 756 mmHg 36%
    20:00 +31°C° 0.1 mm 2 m/S 757 mmHg 38%
    21:00 +29°C° 0.1 mm 2 m/S 757 mmHg 41%
    22:00 +29°C° 0 mm 2 m/S 757 mmHg 43%
    23:00 +28°C° 0 mm 3 m/S 757 mmHg 44%
    Mehr zeigen